Starlink 31447

operational
NORAD ID: 59302 Int'l Des: 2024-056 Owner: SPXS Country: US Constellation: starlink
LEOCIRCULAR

About Starlink 31447

Description loading...

Live Position

Loading 3D Globe...

Upcoming Passes

Altitude History

Altitude vs Time

uPlot chart will show altitude changes over time

Two-Line Element Set

1 59302U 24056G 25351.23365983 -.00000056 00000-0 74770-5 0 9993
2 59302 43.0033 336.3861 0001378 259.0561 101.0136 15.27584511 98548
Epoch: Dec 17, 2025 • Age: 12 hours

Current Status

Altitude 487.7 km
Velocity 7.62 km/s
Sub-Earth Point -21.78°S, 48.65°W
Launch Date Mar 24, 2024
Age 1.7 years
Type internet

Technical Details

Classification Payload
Mass 730.00 kg
Dry Mass 700.00 kg
Total Mass 730.00 kg
Length 0.30 m
Diameter 4.10 m
Span 29.00 m
Shape Box + pan
Manufacturer SPXS
Bus Type Starlink V2M
Phase Status In Orbit
Owner/State SPXS/US

Large Constellations

Loading constellations...